sat.trackr.live / text

‹ back to catalog

STARLINK-32312

NORAD 61711 · 2024-196E

PAYLOAD ACTIVE UNKNOWN

§ Identity

Operator
Country
US
Launch date
2024-10-30
Launch site
AFETR
Launch vehicle
Mass (kg)
RCS (m²)

Purposes: comms

External: N2YO · Heavens-Above · Gunter

§ Orbital elements

Epoch: 2026-05-25T03:07:21.167040Z

Period
94.11 min
Inclination
53.1602°
Eccentricity
0.0001219
Mean motion
15.30187923 rev/d
Perigee alt
474.4 km
Apogee alt
476.1 km
Semi-major
6,853.4 km
B*
2.9418e-5
RAAN
106.0178°
Arg perigee
96.1729°
Mean anomaly
263.9410°
Rev number
8,886

§ Raw data

STARLINK-323121 61711U 24196E   26145.13010610  .00000512  00000+0  29418-4 0  99932 61711  53.1602 106.0178 0001219  96.1729 263.9410 15.30187923 88869

JSON: /api/v1/satellites/61711 · /tle

For live sub-satellite position, see the globe view (requires WebGL).

§ Visibility from observer

Set your observer location to see the next 7 days of passes ≥ 10°. The values pass through the URL so the page stays shareable.

No JS? Fill the form by hand. The geolocation button needs JavaScript.